Vorticity
8 10 15 22 6 7 8 7 10 10 8 8 8 8 9 9 7 7 7 9 14 14
5 28 11 5 -0 2 6 10 11 10 8 7 6 8 7 10 9 7 9 7 5 -2
12 3 28 8 7 2 10 11 11 9 8 7 8 8 9 10 10 11 10 9 1 2
35 24 6 9 5 3 7 9 10 8 8 7 7 6 9 10 10 10 10 11 6 4
-9 14 1 3 3 6 8 10 11 12 11 9 8 6 6 7 9 11 13 11 7 8
11 4 1 1 3 6 9 9 11 11 11 10 10 9 7 6 7 8 11 12 14 14
7 8 10 7 7 7 5 5 6 9 13 12 12 10 9 10 9 8 9 8 13 9
7 7 7 7 7 5 5 1 2 8 10 12 14 12 14 18 16 14 12 11 11 13
9 9 6 6 6 5 6 6 7 -0 0 9 11 11 10 12 13 18 17 14 14 14
13 13 13 12 11 8 7 9 6 10 14 20 -2 1 9 3 8 8 11 14 14 15
16 16 17 18 20 23 27 26 22 11 14 19 2 23 15 13 6 8 8 10 13 15
11 11 12 12 12 12 13 13 17 17 29 26 24 8 -4 9 9 14 7 8 12 14
16 16 16 17 18 17 17 18 17 15 20 24 22 29 26 8 33 9 6 7 11 16
14 13 13 13 15 15 14 14 14 13 20 20 34 17 13 9 29 23 0 8 12 18
Height
3088 3085 3082 3079 3078 3076 3074 3071 3067 3064 3061 3058 3056 3054 3051 3048 3047 3044 3043 3042 3040 3039
3082 3078 3075 3072 3070 3068 3066 3063 3060 3057 3054 3051 3048 3045 3042 3040 3038 3036 3035 3034 3032 3031
3074 3071 3067 3064 3062 3060 3057 3054 3051 3048 3045 3042 3039 3036 3032 3030 3028 3026 3025 3024 3022 3022
3066 3062 3059 3056 3054 3050 3047 3043 3041 3038 3036 3033 3030 3027 3023 3021 3018 3015 3014 3012 3011 3011
3058 3054 3051 3047 3043 3039 3036 3034 3032 3028 3025 3022 3019 3016 3013 3010 3008 3005 3003 3002 3001 3000
3050 3046 3041 3036 3032 3028 3025 3023 3020 3017 3014 3010 3007 3004 3002 2999 2996 2994 2991 2989 2988 2987
3041 3036 3031 3026 3022 3018 3014 3010 3008 3004 3001 2999 2996 2992 2989 2986 2982 2980 2979 2977 2975 2974
3031 3026 3021 3016 3012 3007 3002 2999 2996 2992 2989 2986 2982 2979 2977 2974 2970 2967 2965 2964 2963 2961
3021 3016 3010 3005 3000 2995 2991 2987 2983 2978 2975 2972 2968 2965 2963 2962 2958 2955 2952 2951 2950 2949
3008 3002 2997 2991 2985 2980 2975 2970 2966 2964 2960 2955 2953 2952 2949 2948 2945 2942 2940 2938 2937 2936
2995 2989 2982 2976 2969 2963 2957 2952 2947 2943 2940 2936 2935 2935 2932 2931 2930 2927 2926 2925 2924 2924
2983 2976 2969 2962 2954 2948 2941 2935 2929 2925 2920 2916 2915 2916 2914 2913 2913 2913 2912 2912 2912 2912
2973 2966 2958 2951 2943 2936 2929 2923 2916 2910 2905 2900 2896 2896 2896 2896 2896 2896 2899 2899 2900 2900
2963 2955 2946 2938 2931 2924 2917 2910 2905 2898 2892 2886 2882 2879 2880 2880 2879 2881 2883 2885 2888 2889